This is the latest recevied weather packets stored in our database for station/object N1TKS. If no packets are shown the sender has not sent any weather packets the latest 1 day(s).
| Time | Temp. | Humidity | Pressure | Rain* | Wind** | Luminosity | Snow |
|---|---|---|---|---|---|---|---|
| 1778023015 | 20° C | 64% | 1008.9 hPa | 0 mm | 0.45 m/s, 190° | - | - |
| 1778022715 | 20.56° C | 63% | 1008.9 hPa | 0 mm | 0.89 m/s, 192° | - | - |
| 1778022450 | 20.56° C | 63% | 1008.8 hPa | 0 mm | 0.89 m/s, 140° | - | - |
| 1778022413 | 20.56° C | 63% | 1008.8 hPa | 0 mm | 0.89 m/s, 140° | - | - |
| 1778020917 | 21.11° C | 62% | 1008.5 hPa | 0 mm | 0 m/s | - | - |
| 1778020702 | 21.11° C | 61% | 1008.5 hPa | 0 mm | 0.45 m/s, 213° | - | - |
| 1778020615 | 21.11° C | 62% | 1008.4 hPa | 0 mm | 0 m/s | - | - |
| 1778020314 | 21.11° C | 61% | 1008.3 hPa | 0 mm | 0.45 m/s, 200° | - | - |
| 1778019414 | 21.11° C | 61% | 1008.5 hPa | 0 mm | 0.45 m/s, 213° | - | - |
| 1778019113 | 21.11° C | 61% | 1008.4 hPa | 0 mm | 0.89 m/s, 185° | - | - |
| 1778019005 | 21.67° C | 60% | 1008.2 hPa | 0 mm | 0.89 m/s, 188° | - | - |
| 1778018999 | 21.67° C | 60% | 1008.2 hPa | 0 mm | 0.45 m/s, 194° | - | - |
| 1778018516 | 21.67° C | 61% | 1008.3 hPa | 0 mm | 0.45 m/s, 169° | - | - |
| 1778017613 | 21.67° C | 60% | 1008.2 hPa | 0 mm | 0.89 m/s, 188° | - | - |
| 1778017314 | 21.67° C | 60% | 1008.2 hPa | 0 mm | 0.45 m/s, 194° | - | - |
| 1778017080 | 22.22° C | 59% | 1008.1 hPa | 0 mm | 0.45 m/s, 187° | - | - |
| 1778016713 | 21.67° C | 60% | 1008.1 hPa | 0 mm | 0.89 m/s, 184° | - | - |
| 1778016115 | 21.67° C | 60% | 1008.1 hPa | 0 mm | 0.45 m/s, 218° | - | - |
| 1778015816 | 22.22° C | 59% | 1008.1 hPa | 0 mm | 0.89 m/s, 217° | - | - |
| 1778015514 | 22.22° C | 59% | 1008.1 hPa | 0 mm | 0.45 m/s, 187° | - | - |
| 1778015215 | 22.22° C | 59% | 1008 hPa | 0 mm | 0.45 m/s, 188° | - | - |
| 1778015167 | 22.22° C | 59% | 1008.2 hPa | 0 mm | 0.89 m/s, 205° | - | - |
| 1778015158 | 22.78° C | 58% | 1008.2 hPa | 0 mm | 0 m/s | - | - |
| 1778015007 | 22.22° C | 59% | 1008 hPa | 0 mm | 1.34 m/s, 173° | - | - |
| 1778014914 | 22.22° C | 59% | 1008 hPa | 0 mm | 1.34 m/s, 173° | - | - |
* Rain latest hour (hover to see other rain measurements)
** Current wind speed in m/s (hover to see current wind gust speed)